Location: Borz?cin
(51.1714°N, 19.6030°E)
Time: 17:45:38
(UTC+00:00)

Cosmos 1455 - Pass Details

Date: 19 May 2025
Orbit: 324 x 332 km, 82.5° (Epoch: 21 June)

Event Time Altitude Azimuth Distance (km) Brightness Sun altitude
Rises 22:14:53 0° 4° (N) 2,169 7.0 -18.7°
Reaches altitude 10° 22:17:26 10° 30° (NNE) 1,309 5.0 -18.7°
Maximum altitude 22:19:11 15° 68° (ENE) 1,050 3.9 -18.7°
Enters shadow 22:19:44 14° 82° (E) 1,075 3.8 -18.7°
